Weather History for Pompano Beach, FL

Change the Weather History Date:

Thursday, September 12, 2013

  Actual Average Record
Temperature  
Mean Temperature 80 °F -  
Max Temperature 84 °F 91 °F 96 °F (1993)
Min Temperature 75 °F 73 °F 69 °F (1954)
Cooling Degree Days 16    
Growing Degree Days 30 (Base 50)    
Moisture  
Dew Point 74 °F    
Average Humidity 82    
Maximum Humidity 91    
Minimum Humidity 72    
Precipitation  
Precipitation 0.12 in - - ()
Sea Level Pressure  
Sea Level Pressure 29.96 in    
Wind  
Wind Speed 4 mph (ESE)    
Max Wind Speed 8 mph    
Max Gust Speed -    
Visibility 10 miles    
Events Rain , Thunderstorm    
Averages and records for this station are not official NWS values.
T = Trace of Precipitation, MM = Missing Value Source: NWS Daily Summary

Daily Weather History Graph

Daily Weather History Graph

Search for Another Location

Airport:

Trip Planner

Search our weather history database for the weather conditions in past years. The results will help you decide how hot, cold, wet, or windy it might be!

Date:

Astronomy

Sep. 12, 2013 Rise Set
Actual Time 7:05 AM EDT 7:27 PM EDT
Civil Twilight 6:41 AM EDT 7:50 PM EDT
Nautical Twilight 6:14 AM EDT 8:17 PM EDT
Astronomical Twilight 5:47 AM EDT 8:45 PM EDT
Moon 1:54 PM EDT (9/12) 12:00 AM EDT (9/12)
Length of Visible Light 13h 09m
Length of Day
12h 22m
Waxing Crescent, 50% of the Moon is Illuminated
Sep 12
Waxing Crescent
Sep 12
First Quarter
Sep 19
Full
Sep 26
Last Quarter
Oct 4
New

Hourly Weather History & Observations

Time (EDT) Temp. Heat Index Dew Point Humidity Pressure Visibility Wind Dir Wind Speed Gust Speed Precip Events Conditions
12:53 AM 77.0 °F - 72.0 °F 84% 30.01 in 10.0 mi SE 3.5 mph - 0.01 in Rain Light Rain
1:53 AM 77.0 °F - 73.0 °F 88% 30.00 in 10.0 mi Calm Calm - 0.00 in   Unknown
2:53 AM 77.0 °F - 73.9 °F 90% 29.99 in 10.0 mi Calm Calm - 0.00 in   Unknown
3:53 AM 77.0 °F - 73.9 °F 90% 29.97 in 10.0 mi Calm Calm - 0.01 in Rain Light Rain
4:53 AM 79.0 °F - 75.0 °F 88% 29.97 in 10.0 mi SE 4.6 mph - 0.00 in   Unknown
5:53 AM 79.0 °F - 73.0 °F 82% 29.98 in 10.0 mi ESE 5.8 mph - N/A   Unknown
6:53 AM 78.1 °F - 75.0 °F 90% 29.99 in 10.0 mi Calm Calm - N/A   Unknown
7:53 AM 78.1 °F - 75.0 °F 90% 29.99 in 10.0 mi NE 3.5 mph - N/A   Unknown
8:53 AM 81.0 °F 86.7 °F 75.0 °F 82% 30.01 in 10.0 mi East 6.9 mph - N/A   Mostly Cloudy
9:53 AM 81.0 °F 86.7 °F 75.0 °F 82% 30.01 in 10.0 mi East 6.9 mph - 0.00 in   Mostly Cloudy
10:53 AM - - - N/A% 30.02 in 10.0 mi East 8.1 mph - 0.00 in   Mostly Cloudy
11:53 AM - - - N/A% 30.01 in 10.0 mi ESE 5.8 mph - 0.00 in   Mostly Cloudy
12:53 PM 81.0 °F 86.7 °F 75.0 °F 82% 29.99 in 10.0 mi ESE 6.9 mph - N/A   Unknown
1:53 PM 84.0 °F 91.2 °F 73.9 °F 72% 29.98 in 10.0 mi SE 5.8 mph - N/A   Mostly Cloudy
2:53 PM 84.0 °F 91.2 °F 73.9 °F 72% 29.96 in 10.0 mi SE 4.6 mph - N/A   Mostly Cloudy
3:53 PM 82.9 °F 89.4 °F 73.9 °F 74% 29.93 in 10.0 mi East 4.6 mph - N/A   Mostly Cloudy
4:53 PM 84.0 °F 92.6 °F 75.9 °F 76% 29.91 in 10.0 mi East 4.6 mph - N/A   Mostly Cloudy
5:53 PM 84.0 °F 92.6 °F 75.9 °F 76% 29.91 in 10.0 mi East 6.9 mph - N/A   Scattered Clouds
6:53 PM 84.0 °F 92.6 °F 75.9 °F 76% 29.91 in 10.0 mi East 8.1 mph - N/A   Mostly Cloudy
7:53 PM 82.9 °F 90.2 °F 75.0 °F 77% 29.92 in 10.0 mi Calm Calm - N/A   Unknown
8:53 PM 82.0 °F 88.6 °F 75.0 °F 79% 29.94 in 9.0 mi South 6.9 mph - 0.06 in Rain Light Rain
9:00 PM 82.4 °F 89.5 °F 75.2 °F 79% 29.93 in 4.0 mi South 5.8 mph - 0.02 in Rain , Thunderstorm Heavy Thunderstorms and Rain
9:09 PM 82.4 °F 89.5 °F 75.2 °F 79% 29.93 in 5.0 mi South 5.8 mph - 0.03 in Rain Light Rain
9:53 PM 77.0 °F - 72.0 °F 84% 29.94 in 10.0 mi Calm Calm - 0.04 in   Unknown
10:53 PM 77.0 °F - 72.0 °F 84% 29.93 in 10.0 mi Calm Calm - N/A   Unknown
11:53 PM 75.9 °F - 73.0 °F 91% 29.91 in 10.0 mi Calm Calm - N/A   Unknown